TimeCET,TemperatureF,Dew PointF,Humidity,Sea Level PressureIn,VisibilityMPH,Wind Direction,Wind SpeedMPH,Gust SpeedMPH,PrecipitationIn,Events,Conditions,WindDirDegrees,DateUTC
12:00 AM,53.6,39.2,58,30.15,-9999.0,West,13.8,-,N/A,,Clear,280,2013-01-01 23:00:00
12:30 AM,53.6,39.2,58,30.15,-9999.0,WNW,15.0,-,N/A,,Clear,290,2013-01-01 23:30:00
1:00 AM,52,36,43,30.17,9,WNW,13.8,,,,Scattered Clouds,300,2013-01-02 00:00:00
1:00 AM,51.8,39.2,62,30.15,-9999.0,WNW,13.8,-,N/A,,Clear,300,2013-01-02 00:00:00
1:30 AM,51.8,39.2,62,30.15,-9999.0,WNW,12.7,-,N/A,,Clear,300,2013-01-02 00:30:00
2:00 AM,51.8,39.2,62,30.15,-9999.0,WNW,12.7,-,N/A,,Clear,300,2013-01-02 01:00:00
2:30 AM,51.8,39.2,62,30.15,-9999.0,WNW,13.8,-,N/A,,Clear,300,2013-01-02 01:30:00
3:00 AM,50.0,37.4,62,30.15,-9999.0,WNW,12.7,-,N/A,,Clear,300,2013-01-02 02:00:00
3:30 AM,50.0,37.4,62,30.15,-9999.0,WNW,13.8,-,N/A,,Clear,300,2013-01-02 02:30:00
4:00 AM,51.8,37.4,58,30.18,6.2,NW,11.5,-,N/A,,Partly Cloudy,310,2013-01-02 03:00:00
4:30 AM,50.0,37.4,62,30.18,6.2,WNW,9.2,-,N/A,,Partly Cloudy,300,2013-01-02 03:30:00
5:00 AM,50.0,37.4,62,30.15,6.2,WNW,10.4,-,N/A,,Partly Cloudy,290,2013-01-02 04:00:00
5:30 AM,50.0,37.4,62,30.15,6.2,WNW,9.2,-,N/A,,Partly Cloudy,300,2013-01-02 04:30:00
6:00 AM,50.0,37.4,62,30.15,6.2,NW,11.5,-,N/A,,Partly Cloudy,310,2013-01-02 05:00:00
6:30 AM,50.0,37.4,62,30.18,6.2,WNW,9.2,-,N/A,,Partly Cloudy,300,2013-01-02 05:30:00
7:00 AM,50,35,43,30.19,9,WNW,15.0,,,,Scattered Clouds,300,2013-01-02 06:00:00
7:00 AM,50.0,37.4,62,30.18,-9999.0,NW,13.8,-,N/A,,Clear,310,2013-01-02 06:00:00
7:30 AM,50.0,37.4,62,30.18,-9999.0,WNW,11.5,-,N/A,,Clear,300,2013-01-02 06:30:00
8:00 AM,48.2,37.4,66,30.18,-9999.0,WNW,12.7,-,N/A,,Clear,300,2013-01-02 07:00:00
8:30 AM,48.2,37.4,66,30.21,-9999.0,WNW,6.9,-,N/A,,Clear,300,2013-01-02 07:30:00
9:00 AM,46.4,37.4,71,30.21,-9999.0,WNW,6.9,-,N/A,,Clear,290,2013-01-02 08:00:00
9:30 AM,51.8,37.4,58,30.21,-9999.0,WNW,8.1,-,N/A,,Clear,300,2013-01-02 08:30:00
10:00 AM,55.4,37.4,51,30.21,-9999.0,WNW,3.5,-,N/A,,Clear,300,2013-01-02 09:00:00
10:30 AM,57.2,39.2,51,30.21,-9999.0,WNW,5.8,-,N/A,,Clear,300,2013-01-02 09:30:00
11:00 AM,57.2,37.4,48,30.21,-9999.0,WNW,5.8,-,N/A,,Clear,300,2013-01-02 10:00:00
11:30 AM,57.2,37.4,48,30.24,-9999.0,WNW,10.4,-,N/A,,Clear,290,2013-01-02 10:30:00
12:00 PM,59.0,39.2,48,30.21,-9999.0,WNW,10.4,-,N/A,,Clear,300,2013-01-02 11:00:00
1:00 PM,61,31,21,30.22,37,NNW,8.1,,,,Scattered Clouds,340,2013-01-02 12:00:00
1:00 PM,60.8,33.8,36,30.21,6.2,NNW,6.9,-,N/A,,Partly Cloudy,340,2013-01-02 12:00:00
1:30 PM,62.6,33.8,34,30.18,6.2,Variable,4.6,-,N/A,,Partly Cloudy,0,2013-01-02 12:30:00
2:00 PM,62.6,32.0,32,30.18,6.2,North,4.6,-,N/A,,Partly Cloudy,10,2013-01-02 13:00:00
2:30 PM,60.8,37.4,42,30.18,6.2,East,9.2,-,N/A,,Partly Cloudy,90,2013-01-02 13:30:00
3:00 PM,60.8,37.4,42,30.18,6.2,East,9.2,-,N/A,,Partly Cloudy,90,2013-01-02 14:00:00
3:30 PM,60.8,37.4,42,30.18,6.2,ESE,6.9,-,N/A,,Partly Cloudy,110,2013-01-02 14:30:00
4:00 PM,59.0,35.6,42,30.21,6.2,ESE,5.8,-,N/A,,Partly Cloudy,120,2013-01-02 15:00:00
4:30 PM,59.0,39.2,48,30.21,6.2,SE,4.6,-,N/A,,Partly Cloudy,130,2013-01-02 15:30:00
5:00 PM,57.2,39.2,51,30.21,6.2,ESE,4.6,-,N/A,,Partly Cloudy,110,2013-01-02 16:00:00
5:30 PM,55.4,41.0,58,30.21,6.2,Variable,2.3,-,N/A,,Partly Cloudy,0,2013-01-02 16:30:00
6:00 PM,51.8,39.2,62,30.24,6.2,Variable,1.2,-,N/A,,Partly Cloudy,0,2013-01-02 17:00:00
6:30 PM,51.8,41.0,67,30.24,6.2,Calm,Calm,-,N/A,,Partly Cloudy,0,2013-01-02 17:30:00
7:00 PM,51,38,51,30.27,12,Calm,Calm,,,,Scattered Clouds,,2013-01-02 18:00:00
7:00 PM,50.0,41.0,71,30.24,6.2,Calm,Calm,-,N/A,,Partly Cloudy,0,2013-01-02 18:00:00
7:30 PM,51.8,41.0,67,30.27,6.2,Calm,Calm,-,N/A,,Partly Cloudy,0,2013-01-02 18:30:00
8:00 PM,50.0,42.8,76,30.27,6.2,Calm,Calm,-,N/A,,Partly Cloudy,0,2013-01-02 19:00:00
8:30 PM,50.0,42.8,76,30.27,6.2,Variable,1.2,-,N/A,,Partly Cloudy,0,2013-01-02 19:30:00
9:00 PM,50.0,42.8,76,30.27,6.2,WNW,3.5,-,N/A,,Partly Cloudy,290,2013-01-02 20:00:00
9:30 PM,48.2,42.8,82,30.27,6.2,WNW,3.5,-,N/A,,Partly Cloudy,300,2013-01-02 20:30:00
10:00 PM,46.4,41.0,81,30.30,6.2,Variable,2.3,-,N/A,,Partly Cloudy,0,2013-01-02 21:00:00
10:30 PM,44.6,41.0,87,30.30,6.2,WNW,3.5,-,N/A,,Partly Cloudy,300,2013-01-02 21:30:00
11:00 PM,44.6,41.0,87,30.30,6.2,WNW,4.6,-,N/A,,Partly Cloudy,300,2013-01-02 22:00:00
11:30 PM,46.4,41.0,81,30.33,6.2,NW,3.5,-,N/A,,Partly Cloudy,310,2013-01-02 22:30:00